Flag for Australia Weather past 2 weeks in Bunbury, Western Australia, Australia

Now
68 °F

Mild.


Feels Like: 68 °F
Forecast: 51 / 71 °F
Wind: 12 mph from Southwest

Location: Bunbury

Current Time: Oct 26, 2014 at 1:17:08 PM

Latest Report: Oct 26, 2014 at 12:00 PM


Visibility: N/A

Pressure: 30.26 "Hg

Humidity: 59%

Dew point: 53 °F

Location of BunburyLocation

Historic Weather in Bunbury — Graph

°F

Bunbury temperature yesterday

Maximum temperature yesterday: 69 °F (at 12:00 PM)
Minimum temperature yesterday: 54 °F (at 2:00 AM)
Average temperature yesterday: 63 °F

Past Weeks' High & Low Weather Summary

 TemperatureHumidityPressure
High85 °F (Oct 15, 3:00 PM)97% (Oct 19, 3:00 PM)30.26 "Hg (Oct 19, 3:00 PM)
Low43 °F (Oct 21, 5:00 AM)28% (Oct 14, 3:00 PM)29.85 "Hg (Oct 22, 5:00 PM)
Average62 °F71%30.03 "Hg
* Reported Oct 11 12:00 Noon — Oct 26 12:00 Noon, Bunbury, Weather by CustomWeather, © 2014

Note: Actual official high and low records may vary slightly from our data, if they occured in-between our weather recording intervals... More about our weather records

Advertising

Bunbury weather history for previous 24 hours

 ConditionsComfort  
Time TempWeatherWind HumidityBarometerVisibility
12:00 PM
Oct 26
68 °FMild.12 mph59%30.26 "HgN/A
11:00 AM66 °FMild.9 mph66%30.19 "HgN/A
9:00 AM62 °FMild.12 mph72%30.19 "HgN/A
8:00 AM63 °FMild.9 mph72%30.16 "HgN/A
6:00 AM59 °FCool.7 mph87%30.11 "HgN/A
5:00 AM60 °FCool.7 mph80%30.09 "HgN/A
3:00 AM61 °FCool.7 mph76%30.08 "HgN/A
2:00 AM63 °FMild.12 mph64%30.08 "HgN/A
12:00 AM62 °FMild.8 mph66%30.09 "HgN/A
11:00 PM
Oct 25
62 °FCool.9 mph62%30.09 "HgN/A
9:00 PM62 °FCool.7 mph65%30.10 "HgN/A
8:00 PM62 °FCool.10 mph68%30.09 "HgN/A
6:00 PM63 °FMild.12 mph70%30.06 "HgN/A
5:00 PM64 °FMild.14 mph67%30.04 "HgN/A
3:00 PM68 °FMild.14 mph71%30.02 "HgN/A
2:00 PM65 °FMild.12 mph86%30.02 "HgN/A
Weather by CustomWeather, © 2014

See weather overviewHow to use our weather pages